Location: *
(37.5724°S, 58.0067°E)
Time: 09:32:01
(UTC+00:00)

Cosmos 1733 - Visible Passes

Search period start: 18 June 2021 00:00
Search period end: 28 June 2021 00:00
Orbit: 505 x 520 km, 82.5° (Epoch: 17 June)

Date Brightness Start Highest point End Pass type
(mag) Time Alt. Az. Time Alt. Az. Time Alt. Az.
21 Jun 5.5 02:49:22 10° SSE 02:52:34 25° ESE 02:55:45 10° NE visible
22 Jun 5.9 02:33:33 10° SSE 02:36:25 20° ESE 02:39:16 10° NE visible
23 Jun 6.1 02:17:49 10° SE 02:20:15 16° ESE 02:22:39 10° ENE visible
24 Jun 6.2 02:02:18 10° SE 02:04:04 13° ESE 02:05:49 10° E visible
25 Jun 6.7 01:47:48 10° ESE 01:47:52 10° ESE 01:47:55 10° ESE visible
27 Jun 3.1 02:47:44 10° S 02:51:36 79° W 02:55:24 10° N visible
